Weather in Romblon

Philippines     12°34′33″N   122°16′13″E
temp.,
°C
wind,
m/s
gust,
m/s
humid.,
%
clouds,
%
prec.,
mm/h
press.,
hPa
HPBL,
m
7 may, fri
fri723:00+28ne911815 0.1 1011852
02:00+28ene9108143 0.4 1010770
05:00+28ene898117 0.6 1010627
08:00+28ene897966 0.7 1012710
11:00+28ene77775 0.0 1011797
14:00+29ne687633 0.0 1008549
17:00+29nne57768 0.0 1008279
20:00+29ne587824 0.0 1010349
8 may, sat
sat823:00+29ne788120 0.1 1010648
02:00+28ene677820 0.1 1008656
05:00+28ene77793 0.0 1009697
08:00+28ne677933 0.0 1010733
11:00+28ne6679100 0.0 1010645
14:00+28nne4576100 0.1 1008392
17:00+29n5575100 0.0 1007322
20:00+29nne4577100 0.4 1009329
9 may, sun
sun923:00+29ene6679100 0.0 1010517
02:00+29ene5575100 0.0 1008539
05:00+28e337574 0.0 1008638
08:00+28ene557816 0.1 1010623
11:00+28ene43735 0.1 1010637
14:00+28ne4472100 0.1 1007489
17:00+29nne236897 0.0 1007288
20:00+29nne467732 0.0 1009429
10 may, mon
mon1023:00+29ne567725 0.3 1009595
02:00+29e337443 0.4 1008607
05:00+28ene337487 0.0 1008680
08:00+28ene557586 0.0 1009690
11:00+28ne447796 0.4 1009523
14:00+29ne4473100 0.9 1008546
17:00+29ne227030 0.0 1007242
20:00+29nne33740 0.2 1009241
11 may, tue
tue1123:00+29ne45764 0.3 1009524
02:00+28ene3377100 2.4 1007288
05:00+28ene127319 1.1 1008513
08:00+28ne457657 2.1 1010569
11:00+29ene337115 0.0 1009619
14:00+29ne43717 0.0 1007591
17:00+29nne226842 0.0 1007264
20:00+29n347494 0.0 1008265